{"data":{"norad_id":65437,"intl_designator":"2025-194D","name":"STARLINK-35080","alt_names":[],"object_type":"PAYLOAD","status":"ACTIVE","operator":null,"country":"US","launch_date":"2025-09-03","launch_site_code":"AFWTR","launch_vehicle":null,"mission":null,"orbit_class":"UNKNOWN","rcs_meters":null,"size_class":null,"mass_kg":null,"dimensions":null,"purposes":["comms"],"wikipedia_slug":null,"has_3d_model":false,"image_url":null,"decayed_at":null,"tle_current":{"epoch":"2026-05-25T03:22:19.048800Z","epoch_age_seconds":73633,"freshness":"FRESH","line1":"1 65437U 25194D   26145.14049825  .00004393  00000+0  30824-3 0  9995","line2":"2 65437  97.4483 359.4024 0001753  87.1982 272.9446 15.05660979 41153","mean_motion":15.05660979,"eccentricity":0.0001753,"inclination_deg":97.4483,"raan_deg":359.4024,"arg_perigee_deg":87.1982,"mean_anomaly_deg":272.9446,"bstar":0.00030824,"rev_number":4115,"period_min":95.639059528287,"perigee_km":548.26306643186,"apogee_km":550.69188806759,"semimajor_km":6927.6144772497,"source":"CELESTRAK","updated_at":"2026-05-25T13:38:20.806241Z"}}}